• In Belarus
  • List of Countries
  • For 7 days
  • Water Temperature
  • Satellite Maps
  • Weather Map
  • Weather Widgets
  • user-avatar
    Login

    Hourly Weather Vorohta

    Today, 20 October, Friday

    Time Temperature Precipitation Wind Pressure Humidity
    00:00 +9°C° 0 mm 1 mps 689 mmHg 75%
    01:00 +9°C° 0 mm 1 mps 689 mmHg 76%
    02:00 +9°C° 0 mm 1 mps 689 mmHg 77%
    03:00 +8°C° 0 mm 1 mps 689 mmHg 77%
    04:00 +8°C° 0 mm 1 mps 689 mmHg 77%
    05:00 +8°C° 0 mm 1 mps 689 mmHg 78%
    06:00 +8°C° 0 mm 1 mps 689 mmHg 76%
    07:00 +9°C° 0 mm 1 mps 689 mmHg 73%
    08:00 +9°C° 0 mm 1 mps 690 mmHg 71%
    09:00 +12°C° 0 mm 1 mps 690 mmHg 63%
    10:00 +14°C° 0 mm 1 mps 691 mmHg 54%
    11:00 +18°C° 0 mm 1 mps 691 mmHg 45%
    12:00 +18°C° 0 mm 1 mps 691 mmHg 44%
    13:00 +18°C° 0 mm 1 mps 691 mmHg 43%
    14:00 +19°C° 0 mm 1 mps 691 mmHg 42%
    15:00 +16°C° 0 mm 1 mps 691 mmHg 50%
    16:00 +14°C° 0 mm 1 mps 690 mmHg 57%
    17:00 +13°C° 0 mm 1 mps 690 mmHg 65%
    18:00 +11°C° 0 mm 1 mps 690 mmHg 69%
    19:00 +10°C° 0 mm 1 mps 690 mmHg 74%
    20:00 +8°C° 0 mm 0 mps 690 mmHg 79%
    21:00 +9°C° 0 mm 1 mps 690 mmHg 79%
    22:00 +8°C° 0 mm 1 mps 690 mmHg 80%
    23:00 +8°C° 0 mm 1 mps 690 mmHg 80%

    Tomorrow, 21 October, Saturday

    Time Temperature Precipitation Wind Pressure Humidity
    00:00 +8°C° 0 mm 1 mps 690 mmHg 80%
    01:00 +7°C° 0 mm 1 mps 690 mmHg 80%
    02:00 +7°C° 0 mm 1 mps 690 mmHg 80%
    03:00 +7°C° 0 mm 1 mps 690 mmHg 79%
    04:00 +7°C° 0 mm 1 mps 690 mmHg 79%
    05:00 +6°C° 0 mm 1 mps 690 mmHg 79%
    06:00 +7°C° 0 mm 1 mps 690 mmHg 77%
    07:00 +7°C° 0 mm 1 mps 690 mmHg 76%
    08:00 +8°C° 0 mm 1 mps 690 mmHg 74%
    09:00 +10°C° 0 mm 1 mps 690 mmHg 66%
    10:00 +13°C° 0 mm 1 mps 691 mmHg 58%
    11:00 +15°C° 0 mm 1 mps 691 mmHg 49%
    12:00 +16°C° 0 mm 1 mps 691 mmHg 48%
    13:00 +16°C° 0 mm 1 mps 690 mmHg 46%
    14:00 +16°C° 0 mm 1 mps 690 mmHg 45%
    15:00 +15°C° 0 mm 1 mps 690 mmHg 52%
    16:00 +13°C° 0 mm 1 mps 689 mmHg 59%
    17:00 +12°C° 0 mm 1 mps 689 mmHg 66%
    18:00 +11°C° 0.1 mm 1 mps 689 mmHg 70%
    19:00 +11°C° 0.1 mm 1 mps 689 mmHg 74%
    20:00 +10°C° 0.1 mm 1 mps 689 mmHg 79%
    21:00 +10°C° 0.4 mm 1 mps 689 mmHg 82%
    22:00 +9°C° 0.4 mm 1 mps 689 mmHg 85%
    23:00 +9°C° 0.4 mm 1 mps 688 mmHg 88%

    Day after tomorrow, 22 October, Sunday

    Time Temperature Precipitation Wind Pressure Humidity
    00:00 +9°C° 0.2 mm 1 mps 688 mmHg 89%
    01:00 +9°C° 0.2 mm 1 mps 688 mmHg 90%
    02:00 +9°C° 0.2 mm 1 mps 688 mmHg 90%
    03:00 +8°C° 0 mm 1 mps 688 mmHg 91%
    04:00 +8°C° 0 mm 1 mps 688 mmHg 91%
    05:00 +7°C° 0 mm 1 mps 688 mmHg 91%
    06:00 +8°C° 0 mm 1 mps 688 mmHg 90%
    07:00 +8°C° 0 mm 1 mps 688 mmHg 89%
    08:00 +8°C° 0 mm 1 mps 688 mmHg 88%
    09:00 +10°C° 0 mm 1 mps 689 mmHg 80%
    10:00 +11°C° 0 mm 0 mps 689 mmHg 71%
    11:00 +13°C° 0 mm 0 mps 689 mmHg 63%
    12:00 +14°C° 0 mm 1 mps 689 mmHg 60%
    13:00 +14°C° 0 mm 1 mps 689 mmHg 56%
    14:00 +15°C° 0 mm 1 mps 689 mmHg 52%
    15:00 +14°C° 0 mm 1 mps 688 mmHg 59%
    16:00 +12°C° 0 mm 1 mps 688 mmHg 65%
    17:00 +11°C° 0 mm 1 mps 687 mmHg 72%
    18:00 +10°C° 0 mm 1 mps 687 mmHg 77%
    19:00 +9°C° 0 mm 1 mps 687 mmHg 81%
    20:00 +8°C° 0 mm 1 mps 687 mmHg 86%
    21:00 +8°C° 0 mm 1 mps 687 mmHg 87%
    22:00 +8°C° 0 mm 1 mps 687 mmHg 88%
    23:00 +7°C° 0 mm 1 mps 687 mmHg 88%

    23 October, Monday

    Time Temperature Precipitation Wind Pressure Humidity
    00:00 +7°C° 0 mm 1 mps 686 mmHg 88%
    01:00 +7°C° 0 mm 1 mps 686 mmHg 87%
    02:00 +7°C° 0 mm 1 mps 686 mmHg 86%
    03:00 +7°C° 0 mm 1 mps 685 mmHg 86%
    04:00 +7°C° 0 mm 1 mps 685 mmHg 85%
    05:00 +7°C° 0 mm 1 mps 685 mmHg 84%
    06:00 +8°C° 0 mm 1 mps 685 mmHg 84%
    07:00 +8°C° 0 mm 1 mps 685 mmHg 83%
    08:00 +8°C° 0 mm 1 mps 685 mmHg 83%
    09:00 +9°C° 0 mm 2 mps 685 mmHg 76%
    10:00 +12°C° 0 mm 2 mps 685 mmHg 70%
    11:00 +13°C° 0 mm 2 mps 685 mmHg 63%
    12:00 +13°C° 0 mm 3 mps 685 mmHg 63%
    13:00 +13°C° 0 mm 3 mps 685 mmHg 63%
    14:00 +13°C° 0 mm 3 mps 685 mmHg 62%
    15:00 +12°C° 0 mm 3 mps 685 mmHg 68%
    16:00 +12°C° 0 mm 2 mps 685 mmHg 75%
    17:00 +10°C° 0 mm 2 mps 685 mmHg 81%
    18:00 +10°C° 0.1 mm 2 mps 685 mmHg 83%
    19:00 +9°C° 0.1 mm 2 mps 685 mmHg 86%
    20:00 +9°C° 0.1 mm 2 mps 686 mmHg 89%
    21:00 +8°C° 0.2 mm 2 mps 686 mmHg 89%
    22:00 +8°C° 0.2 mm 2 mps 686 mmHg 90%
    23:00 +8°C° 0.2 mm 2 mps 686 mmHg 90%

    24 October, Tuesday

    Time Temperature Precipitation Wind Pressure Humidity
    00:00 +8°C° 0.2 mm 2 mps 686 mmHg 91%
    01:00 +8°C° 0.2 mm 2 mps 687 mmHg 91%
    02:00 +8°C° 0.2 mm 2 mps 687 mmHg 92%
    03:00 +7°C° 0.2 mm 2 mps 687 mmHg 92%
    04:00 +7°C° 0.2 mm 2 mps 687 mmHg 92%
    05:00 +7°C° 0.2 mm 2 mps 688 mmHg 92%
    06:00 +7°C° 0.2 mm 2 mps 688 mmHg 91%
    07:00 +7°C° 0.2 mm 2 mps 688 mmHg 90%
    08:00 +7°C° 0.2 mm 2 mps 689 mmHg 89%
    09:00 +8°C° 0.1 mm 2 mps 689 mmHg 84%
    10:00 +8°C° 0.1 mm 2 mps 689 mmHg 80%
    11:00 +9°C° 0.1 mm 2 mps 690 mmHg 75%
    12:00 +10°C° 0.1 mm 2 mps 690 mmHg 72%
    13:00 +10°C° 0.1 mm 2 mps 690 mmHg 69%
    14:00 +12°C° 0.1 mm 2 mps 690 mmHg 66%
    15:00 +10°C° 0.1 mm 2 mps 690 mmHg 68%
    16:00 +9°C° 0.1 mm 2 mps 690 mmHg 70%
    17:00 +8°C° 0.1 mm 2 mps 690 mmHg 72%
    18:00 +7°C° 0.2 mm 2 mps 690 mmHg 73%
    19:00 +6°C° 0.2 mm 2 mps 690 mmHg 74%
    20:00 +6°C° 0.2 mm 2 mps 691 mmHg 75%
    21:00 +5°C° 0.2 mm 2 mps 691 mmHg 75%
    22:00 +5°C° 0.2 mm 2 mps 691 mmHg 75%
    23:00 +5°C° 0.2 mm 2 mps 692 mmHg 74%

    25 October, Wednesday

    Time Temperature Precipitation Wind Pressure Humidity
    00:00 +4°C° 0.1 mm 2 mps 692 mmHg 74%
    01:00 +4°C° 0.1 mm 2 mps 692 mmHg 73%
    02:00 +3°C° 0.1 mm 2 mps 693 mmHg 73%
    03:00 +3°C° 0 mm 2 mps 693 mmHg 72%
    04:00 +2°C° 0 mm 2 mps 693 mmHg 72%
    05:00 +1°C° 0 mm 2 mps 693 mmHg 71%
    06:00 +1°C° 0 mm 2 mps 694 mmHg 70%
    07:00 +1°C° 0 mm 2 mps 694 mmHg 68%
    08:00 +1°C° 0 mm 2 mps 695 mmHg 67%
    09:00 +3°C° 0 mm 2 mps 696 mmHg 59%
    10:00 +4°C° 0 mm 2 mps 696 mmHg 51%
    11:00 +5°C° 0 mm 3 mps 697 mmHg 43%
    12:00 +5°C° 0 mm 3 mps 697 mmHg 40%
    13:00 +7°C° 0 mm 3 mps 697 mmHg 38%
    14:00 +7°C° 0 mm 3 mps 697 mmHg 36%
    15:00 +6°C° 0 mm 2 mps 697 mmHg 40%
    16:00 +4°C° 0 mm 2 mps 697 mmHg 45%
    17:00 +3°C° 0 mm 2 mps 697 mmHg 49%
    18:00 +2°C° 0 mm 2 mps 697 mmHg 52%
    19:00 +1°C° 0 mm 2 mps 698 mmHg 55%
    20:00 -1°C° 0 mm 2 mps 698 mmHg 58%
    21:00 -1°C° 0 mm 2 mps 698 mmHg 59%
    22:00 -2°C° 0 mm 2 mps 699 mmHg 61%
    23:00 -2°C° 0 mm 2 mps 699 mmHg 62%
    Show more